OPS 4682 DEB, 18675

Orbit data source: Space-Track

OPS 4682 DEB, 18675 is space debris in LEO originally from a launch on Sat, 03 Apr 1965 UTC launched from the Air Force Western Test Range (AFWTR). Debris objects in space refer to the collection of defunct objects orbiting the Earth. Examples of debris include non-operational satellites, rocket bodies, and fragments generated from explosions, collisions, or faulty payload assembly.

Loading next visibility...
Identifier
18675, 1965-027AH
Orbit
LEO
Country
Flag of USUS
Related business
Manufacturer
Unknown
Mission
Spacecraft
Bus & Motor
Unknown
Mass
Unknown
Launch date (UTC)
1965-04-03 (61 years ago)
Launch vehicle
Unknown
Launch site
Air Force Western Test Range (AFWTR)
Object type
Payload
Rocket body
Debris
Shape & HBR
Unknown shape, 0.1 m
Radar Cross Section
Medium (>0.1 m² and <1 m²)

Expand to show TLE details & history
Last TLE update: 6 days ago

TLE from 6 days ago
0 OPS 4682 DEB
1 18675U 65027AH  26158.85407620  .00000953  00000-0  31438-2 0  9999
2 18675  90.2396 354.2532 0024597 293.0443 133.0221 12.99901094857381
Epoch: 2026-06-07T20:29Z
TLE epoch observation values (Epoch: 2026-06-07T20:29:52.183Z)
Latitude
66.34758°
Longitude
149.99213°
Altitude
1,286.873 km
Speed
7.213 km/s
True Right ascension
23h 34m 50s
True Declination
66° 13' 47"
Sunlit
Object was in daylight at epoch
Visualization orbit readout
Latitude
Unknown
Longitude
Unknown
Altitude
Unknown
Speed
Unknown
Apparent Right ascension
Unknown
Apparent Declination
Unknown
Sunlit
N/A
Visualization observer readout
Local Sidereal Time
19:05:01
Azimuth
Unknown
Elevation
Unknown
Doppler factor
Unknown
Orbital elements
Apogee altitude
1,278.388 km
Perigee altitude
1,240.815 km
Semi-major axis
7,637.738 km
Eccentricity
0.00246
Inclination
90.2396°
RAAN
354.2532°
Arg. of periapsis
293.0443°
True anomaly
133.22773°
Mean anomaly
133.0221°
Eccentric anomaly
133.12496°
Mean motion
3.25159 °/min
Orbital period
110.72 mins
BSTAR
0.0031438
Loading maneuver chart data...
Computing Atmospheric mass density...
Loading historical data...
Loading historical data...
Loading historical data...
Loading historical data...
Loading historical data...
Loading historical data...
Loading historical data...

Documentation

Showing up to 5 results
|